Crosby, ND

9:32 AM CDT on August 24, 2016 (GMT -0500)
Crosby

Weather History for KD50 - April, 2013

Change the Weather History Date:

Monday, April 22, 2013

  Actual Average (KISN) Record (KISN)
Temperature  
Mean Temperature 24 °F 46 °F  
Max Temperature 32 °F 60 °F 89 °F (1989)
Min Temperature 15 °F 32 °F 12 °F (1909)
Degree Days  
Heating Degree Days 42 19  
Month to date heating degree days 512  
Since 1 July heating degree days 8387  
Cooling Degree Days 0 0  
Month to date cooling degree days 0  
Year to date cooling degree days 0  
Moisture  
Dew Point 18 °F    
Average Humidity 81    
Maximum Humidity 93    
Minimum Humidity 60    
Precipitation  
Precipitation 0.00 in 0.03 in 0.43 in (1960)
Month to date precipitation 0.66  
Year to date precipitation 2.35  
Sea Level Pressure  
Sea Level Pressure 30.36 in    
Wind  
Wind Speed 12 mph (NW)    
Max Wind Speed 18 mph    
Max Gust Speed 21 mph    
Visibility 10 miles    
Events      
T = Trace of Precipitation, MM = Missing Value Source: NWS Daily Summary

Daily Weather History Graph

Daily Weather History Graph

Search for Another Location

Airport or City:

Trip Planner

Search our weather history database for the weather conditions in past years. The results will help you decide how hot, cold, wet, or windy it might be!

Date:

Astronomy

Apr. 22, 2013 Rise Set
Actual Time 6:48 AM CDT 8:56 PM CDT
Civil Twilight 6:13 AM CDT 9:30 PM CDT
Nautical Twilight 5:31 AM CDT 10:13 PM CDT
Astronomical Twilight 4:43 AM CDT 11:01 PM CDT
Moon 5:33 PM CDT (4/22) 5:01 AM CDT (4/22)
Length of Visible Light 15h 16m
Length of Day
14h 07m
Waxing Gibbous, 88% of the Moon is Illuminated
Apr 22
Waxing Gibbous
Apr 25
Full
May 2
Last Quarter
May 9
New
May 17
First Quarter

Hourly Weather History & Observations

Time (CDT) Temp. Windchill Dew Point Humidity Pressure Visibility Wind Dir Wind Speed Gust Speed Precip Events Conditions
12:15 AM 19.4 °F 7.9 °F 17.6 °F 93% 30.28 in 10.0 mi WNW 10.4 mph - N/A   Clear
12:35 AM 19.4 °F 8.6 °F 17.6 °F 93% 30.28 in 10.0 mi WNW 9.2 mph - N/A   Clear
12:55 AM 19.4 °F 7.2 °F 15.8 °F 86% 30.28 in 10.0 mi WNW 11.5 mph - N/A   Clear
1:15 AM 19.4 °F 6.6 °F 15.8 °F 86% 30.29 in 10.0 mi WNW 12.7 mph - N/A   Clear
1:35 AM 19.4 °F 6.6 °F 15.8 °F 86% 30.29 in 10.0 mi NW 12.7 mph - N/A   Clear
1:55 AM 19.4 °F 6.0 °F 15.8 °F 86% 30.30 in 10.0 mi WNW 13.8 mph - N/A   Clear
2:15 AM 17.6 °F 6.4 °F 14.0 °F 86% 30.30 in 10.0 mi WNW 9.2 mph - N/A   Clear
2:35 AM 17.6 °F 6.4 °F 14.0 °F 86% 30.31 in 10.0 mi WNW 9.2 mph - N/A   Clear
2:55 AM 17.6 °F 6.4 °F 14.0 °F 86% 30.31 in 10.0 mi WNW 9.2 mph - N/A   Clear
3:15 AM 17.6 °F 6.4 °F 14.0 °F 86% 30.31 in 10.0 mi WNW 9.2 mph - N/A   Clear
3:35 AM 17.6 °F 4.3 °F 14.0 °F 86% 30.31 in 10.0 mi WNW 12.7 mph - N/A   Clear
3:55 AM 15.8 °F 2.1 °F 14.0 °F 93% 30.31 in 10.0 mi WNW 12.7 mph - N/A   Clear
4:15 AM 15.8 °F 3.4 °F 14.0 °F 93% 30.31 in 10.0 mi WNW 10.4 mph - N/A   Clear
4:35 AM 15.8 °F 2.1 °F 14.0 °F 93% 30.31 in 10.0 mi WNW 12.7 mph - N/A   Clear
4:55 AM 15.8 °F 1.4 °F 14.0 °F 93% 30.31 in 10.0 mi NW 13.8 mph - N/A   Clear
5:15 AM 17.6 °F 2.7 °F 14.0 °F 86% 30.31 in 10.0 mi NW 16.1 mph - N/A   Clear
5:35 AM 17.6 °F 2.7 °F 14.0 °F 86% 30.31 in 10.0 mi NW 16.1 mph - N/A   Clear
5:55 AM 15.8 °F 0.9 °F 14.0 °F 93% 30.33 in 10.0 mi NW 15.0 mph - N/A   Clear
6:15 AM 15.8 °F 1.4 °F 14.0 °F 93% 30.33 in 10.0 mi NW 13.8 mph - N/A   Clear
6:35 AM 15.8 °F 2.1 °F 14.0 °F 93% 30.34 in 10.0 mi NW 12.7 mph - N/A   Clear
6:55 AM 15.8 °F 0.9 °F 14.0 °F 93% 30.35 in 10.0 mi NW 15.0 mph - N/A   Clear
7:15 AM 15.8 °F 0.9 °F 14.0 °F 93% 30.35 in 10.0 mi NW 15.0 mph - N/A   Clear
7:35 AM 15.8 °F 0.9 °F 14.0 °F 93% 30.35 in 10.0 mi NW 15.0 mph - N/A   Clear
7:55 AM 15.8 °F -0.2 °F 14.0 °F 93% 30.36 in 10.0 mi NW 17.3 mph - N/A   Clear
8:15 AM 17.6 °F 2.7 °F 14.0 °F 86% 30.36 in 10.0 mi NW 16.1 mph - N/A   Clear
8:35 AM 17.6 °F 2.7 °F 14.0 °F 86% 30.38 in 10.0 mi NW 16.1 mph 20.7 mph N/A   Clear
8:55 AM 17.6 °F 3.2 °F 14.0 °F 86% 30.38 in 10.0 mi NW 15.0 mph - N/A   Clear
9:15 AM 19.4 °F 4.1 °F 15.8 °F 86% 30.38 in 10.0 mi NW 18.4 mph - N/A   Clear
9:35 AM 19.4 °F 5.0 °F 15.8 °F 86% 30.39 in 10.0 mi NW 16.1 mph 20.7 mph N/A   Clear
9:55 AM 21.2 °F 7.8 °F 17.6 °F 86% 30.39 in 10.0 mi NNW 15.0 mph - N/A   Clear
10:15 AM 21.2 °F 8.3 °F 17.6 °F 86% 30.40 in 10.0 mi NW 13.8 mph - N/A   Clear
10:35 AM 23.0 °F 11.1 °F 17.6 °F 80% 30.41 in 10.0 mi NNW 12.7 mph - N/A   Clear
10:55 AM 23.0 °F 13.1 °F 17.6 °F 80% 30.41 in 10.0 mi NW 9.2 mph - N/A   Clear
11:15 AM 24.8 °F 15.3 °F 19.4 °F 80% 30.42 in 10.0 mi NW 9.2 mph - N/A   Clear
11:35 AM 24.8 °F 14.6 °F 19.4 °F 80% 30.42 in 10.0 mi NW 10.4 mph - N/A   Clear
11:55 AM 26.6 °F 16.2 °F 19.4 °F 74% 30.42 in 10.0 mi WNW 11.5 mph - N/A   Clear
12:15 PM 26.6 °F 16.2 °F 19.4 °F 74% 30.42 in 10.0 mi NW 11.5 mph - N/A   Clear
12:35 PM 26.6 °F 16.2 °F 19.4 °F 74% 30.42 in 10.0 mi NW 11.5 mph - N/A   Clear
12:55 PM 26.6 °F 16.8 °F 19.4 °F 74% 30.42 in 10.0 mi WNW 10.4 mph - N/A   Clear
1:15 PM 28.4 °F 19.1 °F 19.4 °F 69% 30.42 in 10.0 mi WNW 10.4 mph - N/A   Clear
1:35 PM 28.4 °F 18.5 °F 19.4 °F 69% 30.42 in 10.0 mi WNW 11.5 mph - N/A   Clear
1:55 PM 28.4 °F 18.5 °F 19.4 °F 69% 30.42 in 10.0 mi NW 11.5 mph - N/A   Clear
2:15 PM 28.4 °F 17.5 °F 19.4 °F 69% 30.41 in 10.0 mi NW 13.8 mph - N/A   Clear
2:35 PM 30.2 °F 19.3 °F 19.4 °F 64% 30.41 in 10.0 mi NW 15.0 mph - N/A   Clear
2:55 PM 30.2 °F 19.8 °F 17.6 °F 60% 30.41 in 10.0 mi NW 13.8 mph 19.6 mph N/A   Clear
3:15 PM 30.2 °F 19.3 °F 19.4 °F 64% 30.41 in 10.0 mi NW 15.0 mph 19.6 mph N/A   Partly Cloudy
3:35 PM 32.0 °F 21.2 °F 19.4 °F 60% 30.40 in 10.0 mi NW 16.1 mph - N/A   Partly Cloudy
3:55 PM 30.2 °F 19.8 °F 17.6 °F 60% 30.40 in 10.0 mi NW 13.8 mph - N/A   Partly Cloudy
4:15 PM 30.2 °F 18.5 °F 19.4 °F 64% 30.39 in 10.0 mi NW 17.3 mph - N/A   Clear
4:35 PM 32.0 °F 20.8 °F 19.4 °F 60% 30.39 in 10.0 mi NW 17.3 mph - N/A   Clear
4:55 PM 32.0 °F 21.2 °F 19.4 °F 60% 30.39 in 10.0 mi NW 16.1 mph - N/A   Clear
5:15 PM 30.2 °F 19.3 °F 19.4 °F 64% 30.39 in 10.0 mi NW 15.0 mph - N/A   Scattered Clouds
5:35 PM 32.0 °F 22.1 °F 21.2 °F 64% 30.38 in 10.0 mi NNW 13.8 mph - N/A   Scattered Clouds
5:55 PM 32.0 °F 22.1 °F 19.4 °F 60% 30.38 in 10.0 mi NW 13.8 mph - N/A   Partly Cloudy
6:15 PM 32.0 °F 23.0 °F 21.2 °F 64% 30.38 in 10.0 mi NNW 11.5 mph - N/A   Clear
6:35 PM 30.2 °F 21.3 °F 21.2 °F 69% 30.37 in 10.0 mi NNW 10.4 mph - N/A   Clear
6:55 PM 30.2 °F 21.9 °F 19.4 °F 64% 30.37 in 10.0 mi NNW 9.2 mph - N/A   Clear
7:15 PM 30.2 °F 22.6 °F 19.4 °F 64% 30.37 in 10.0 mi NW 8.1 mph - N/A   Clear
7:35 PM 28.4 °F 20.4 °F 21.2 °F 74% 30.36 in 10.0 mi NNW 8.1 mph - N/A   Clear
7:55 PM 28.4 °F 22.2 °F 23.0 °F 80% 30.36 in 10.0 mi NNW 5.8 mph - N/A   Clear
8:15 PM 28.4 °F 23.3 °F 21.2 °F 74% 30.36 in 10.0 mi NNW 4.6 mph - N/A   Clear
8:35 PM 26.6 °F 22.6 °F 21.2 °F 80% 30.35 in 10.0 mi NW 3.5 mph - N/A   Clear
8:55 PM 26.6 °F - 21.2 °F 80% 30.35 in 10.0 mi Calm Calm - N/A   Clear
9:15 PM 24.8 °F - 21.2 °F 86% 30.35 in 10.0 mi Calm Calm - N/A   Clear
9:35 PM 23.0 °F 18.4 °F 21.2 °F 93% 30.35 in 10.0 mi SW 3.5 mph - N/A   Clear
9:55 PM 23.0 °F 17.0 °F 19.4 °F 86% 30.35 in 10.0 mi SW 4.6 mph - N/A   Clear
10:15 PM 21.2 °F 13.6 °F 19.4 °F 93% 30.35 in 10.0 mi SSW 5.8 mph - N/A   Clear
10:35 PM 21.2 °F 13.6 °F 19.4 °F 93% 30.34 in 10.0 mi SSW 5.8 mph - N/A   Clear
10:55 PM 19.4 °F 10.4 °F 17.6 °F 93% 30.34 in 10.0 mi SSW 6.9 mph - N/A   Clear
11:15 PM 19.4 °F 9.5 °F 17.6 °F 93% 30.33 in 10.0 mi SSW 8.1 mph - N/A   Clear
11:35 PM 19.4 °F 9.5 °F 17.6 °F 93% 30.33 in 10.0 mi SSW 8.1 mph - N/A   Clear
11:55 PM 19.4 °F 8.6 °F 17.6 °F 93% 30.32 in 10.0 mi SSW 9.2 mph - N/A   Clear